Weather History for KIKK - May, 2013

Change the Weather History Date:

Wednesday, May 22, 2013

  Actual Average (WUND) Record (WUND)
Temperature  
Mean Temperature 68 °F -  
Max Temperature 74 °F - - (-1)
Min Temperature 60 °F - - (-1)
Cooling Degree Days 2    
Growing Degree Days 18 (Base 50)    
Moisture  
Dew Point 60 °F    
Average Humidity 79    
Maximum Humidity 94    
Minimum Humidity 52    
Precipitation  
Precipitation 0.02 in - - ()
Sea Level Pressure  
Sea Level Pressure 29.71 in    
Wind  
Wind Speed 11 mph (SW)    
Max Wind Speed 18 mph    
Max Gust Speed 25 mph    
Visibility 10 miles    
Events Rain    
Averages and records for this station are not official NWS values.
T = Trace of Precipitation, MM = Missing Value Source: NWS Daily Summary

Daily Weather History Graph

Daily Weather History Graph

Search for Another Location

Airport or City:

Trip Planner

Search our weather history database for the weather conditions in past years. The results will help you decide how hot, cold, wet, or windy it might be!

Date:

Astronomy

May. 22, 2013 Rise Set
Actual Time 5:27 AM CDT 8:09 PM CDT
Civil Twilight 4:55 AM CDT 8:41 PM CDT
Nautical Twilight 4:15 AM CDT 9:21 PM CDT
Astronomical Twilight 3:29 AM CDT 10:07 PM CDT
Moon 5:30 PM CDT (5/22) 3:32 AM CDT (5/22)
Length of Visible Light 15h 46m
Length of Day
14h 42m
Waxing Gibbous, 91% of the Moon is Illuminated
May 22
Waxing Gibbous
May 24
Full
May 31
Last Quarter
Jun 8
New
Jun 16
First Quarter

Hourly Weather History & Observations

Time (CDT) Temp. Dew Point Humidity Pressure Visibility Wind Dir Wind Speed Gust Speed Precip Events Conditions
12:15 AM 70.3 °F 64.0 °F 80% 29.71 in 10.0 mi South 12.7 mph - N/A   Overcast
12:35 AM 69.8 °F 64.2 °F 82% 29.71 in 10.0 mi South 10.4 mph - N/A   Overcast
12:55 AM 69.4 °F 64.2 °F 83% 29.71 in 10.0 mi South 10.4 mph - N/A   Overcast
1:15 AM 69.3 °F 64.2 °F 84% 29.69 in 10.0 mi South 5.8 mph - N/A   Overcast
1:35 AM 68.9 °F 64.4 °F 86% 29.70 in 10.0 mi South 6.9 mph - N/A   Overcast
1:55 AM 69.1 °F 65.3 °F 88% 29.69 in 10.0 mi SSE 6.9 mph - N/A   Overcast
2:15 AM 68.9 °F 64.8 °F 87% 29.69 in 10.0 mi South 9.2 mph - N/A   Overcast
2:35 AM 68.7 °F 64.8 °F 87% 29.69 in 10.0 mi South 10.4 mph - N/A   Overcast
2:55 AM 68.0 °F 62.8 °F 83% 29.69 in 10.0 mi South 13.8 mph - N/A   Overcast
3:15 AM 67.3 °F 62.8 °F 85% 29.68 in 10.0 mi South 11.5 mph - N/A   Overcast
3:35 AM 67.1 °F 63.0 °F 87% 29.68 in 10.0 mi South 12.7 mph 18.4 mph N/A   Overcast
3:55 AM 66.4 °F 63.0 °F 89% 29.69 in 10.0 mi South 11.5 mph 17.3 mph N/A   Overcast
4:15 AM 66.4 °F 63.1 °F 89% 29.69 in 10.0 mi South 11.5 mph - N/A   Overcast
4:35 AM 66.4 °F 63.5 °F 90% 29.68 in 10.0 mi South 12.7 mph - N/A Rain Rain
4:55 AM 65.8 °F 63.5 °F 92% 29.68 in 10.0 mi SSW 10.4 mph 17.3 mph N/A   Overcast
5:15 AM 65.5 °F 63.5 °F 93% 29.67 in 10.0 mi SSW 9.2 mph 16.1 mph N/A   Mostly Cloudy
5:35 AM 65.3 °F 63.5 °F 94% 29.68 in 10.0 mi SSW 10.4 mph - N/A   Mostly Cloudy
5:55 AM 65.3 °F 63.1 °F 93% 29.68 in 10.0 mi SSW 13.8 mph 18.4 mph N/A   Mostly Cloudy
6:15 AM 65.3 °F 63.0 °F 92% 29.69 in 10.0 mi SSW 10.4 mph - N/A   Mostly Cloudy
6:35 AM 65.3 °F 63.0 °F 92% 29.69 in 10.0 mi SSW 10.4 mph - N/A   Overcast
6:55 AM 65.1 °F 63.1 °F 93% 29.69 in 10.0 mi SSW 10.4 mph - N/A   Drizzle
7:15 AM 65.3 °F 63.1 °F 93% 29.68 in 10.0 mi SW 4.6 mph - N/A   Overcast
7:35 AM 65.7 °F 62.8 °F 90% 29.68 in 10.0 mi SSW 3.5 mph - N/A Rain Light Rain
7:55 AM 65.5 °F 63.0 °F 92% 29.66 in 10.0 mi Calm Calm - N/A   Mostly Cloudy
8:15 AM 66.0 °F 63.0 °F 90% 29.64 in 10.0 mi SE 3.5 mph - N/A   Scattered Clouds
8:35 AM 69.3 °F 64.4 °F 84% 29.67 in 10.0 mi South 9.2 mph - N/A   Scattered Clouds
8:55 AM 69.4 °F 63.9 °F 82% 29.68 in 10.0 mi SSW 11.5 mph - N/A   Mostly Cloudy
9:15 AM 68.5 °F 63.7 °F 84% 29.69 in 10.0 mi South 16.1 mph - N/A   Overcast
9:35 AM 67.5 °F 63.3 °F 87% 29.69 in 10.0 mi South 15.0 mph 20.7 mph N/A   Overcast
9:55 AM 68.0 °F 63.3 °F 85% 29.69 in 10.0 mi South 18.4 mph - N/A   Overcast
10:15 AM 68.0 °F 63.3 °F 85% 29.69 in 10.0 mi South 16.1 mph - N/A   Overcast
10:35 AM 68.9 °F 62.8 °F 81% 29.69 in 10.0 mi SSW 15.0 mph 19.6 mph N/A   Overcast
10:55 AM 69.1 °F 61.9 °F 78% 29.69 in 10.0 mi SSW 13.8 mph 23.0 mph N/A   Overcast
11:15 AM 70.3 °F 62.1 °F 75% 29.69 in 10.0 mi South 17.3 mph 20.7 mph N/A   Overcast
11:35 AM 72.3 °F 63.1 °F 73% 29.69 in 10.0 mi SW 18.4 mph 23.0 mph N/A   Overcast
11:55 AM 73.6 °F 61.7 °F 66% 29.69 in 10.0 mi SSW 16.1 mph 24.2 mph N/A   Scattered Clouds
12:15 PM 70.5 °F 60.3 °F 70% 29.69 in 10.0 mi WSW 18.4 mph 25.3 mph N/A   Mostly Cloudy
12:35 PM 64.6 °F 62.8 °F 94% 29.69 in 4.0 mi West 12.7 mph - 0.01 in Rain Rain
12:55 PM 66.7 °F 63.3 °F 89% 29.69 in 10.0 mi West 13.8 mph 21.9 mph 0.02 in   Overcast
1:15 PM 69.4 °F 63.3 °F 81% 29.69 in 10.0 mi West 15.0 mph 21.9 mph N/A   Mostly Cloudy
1:35 PM 69.1 °F 62.1 °F 78% 29.70 in 10.0 mi WSW 13.8 mph - N/A   Mostly Cloudy
1:55 PM 68.9 °F 60.6 °F 75% 29.70 in 10.0 mi West 13.8 mph 18.4 mph N/A   Mostly Cloudy
2:15 PM 70.9 °F 59.2 °F 66% 29.70 in 10.0 mi West 17.3 mph 21.9 mph N/A   Mostly Cloudy
2:35 PM 71.6 °F 56.1 °F 58% 29.72 in 10.0 mi West 18.4 mph 24.2 mph N/A   Scattered Clouds
2:55 PM 72.0 °F 54.3 °F 54% 29.72 in 10.0 mi West 17.3 mph 24.2 mph N/A   Scattered Clouds
3:15 PM 72.9 °F 54.3 °F 52% 29.72 in 10.0 mi WSW 12.7 mph - N/A   Clear
3:35 PM 72.7 °F 55.4 °F 55% 29.71 in 10.0 mi West 11.5 mph - N/A   Scattered Clouds
3:55 PM 74.1 °F 57.0 °F 55% 29.70 in 10.0 mi WSW 10.4 mph 17.3 mph N/A   Scattered Clouds
4:15 PM 72.5 °F 56.5 °F 57% 29.70 in 10.0 mi West 10.4 mph - N/A   Mostly Cloudy
4:35 PM 70.7 °F 55.8 °F 59% 29.70 in 10.0 mi WSW 12.7 mph - N/A   Overcast
4:55 PM 68.5 °F 56.1 °F 64% 29.71 in 10.0 mi WSW 10.4 mph 17.3 mph N/A Rain Light Rain
5:15 PM 69.8 °F 55.9 °F 61% 29.70 in 10.0 mi WSW 10.4 mph - N/A   Overcast
5:35 PM 69.3 °F 56.3 °F 63% 29.70 in 10.0 mi SW 12.7 mph - N/A   Mostly Cloudy
5:55 PM 69.6 °F 56.5 °F 63% 29.70 in 10.0 mi WSW 10.4 mph - N/A   Mostly Cloudy
6:15 PM 66.2 °F 58.5 °F 76% 29.71 in 10.0 mi West 8.1 mph 11.5 mph N/A Rain Light Rain
6:35 PM 67.1 °F 59.0 °F 75% 29.71 in 10.0 mi West 3.5 mph - N/A   Overcast
6:55 PM 67.3 °F 59.4 °F 76% 29.71 in 10.0 mi West 6.9 mph - N/A   Overcast
7:15 PM 67.5 °F 58.1 °F 72% 29.72 in 10.0 mi West 10.4 mph - N/A   Overcast
7:35 PM 66.4 °F 58.1 °F 75% 29.73 in 10.0 mi West 15.0 mph - N/A   Overcast
7:55 PM 64.0 °F 59.0 °F 84% 29.74 in 10.0 mi West 8.1 mph - N/A   Overcast
8:15 PM 63.5 °F 58.3 °F 83% 29.74 in 10.0 mi West 5.8 mph - N/A   Mostly Cloudy
8:35 PM 63.0 °F 57.4 °F 82% 29.75 in 10.0 mi WSW 6.9 mph - N/A   Mostly Cloudy
8:55 PM 63.3 °F 57.4 °F 81% 29.76 in 10.0 mi WSW 6.9 mph - N/A   Mostly Cloudy
9:15 PM 63.0 °F 57.0 °F 81% 29.76 in 10.0 mi West 8.1 mph - N/A   Mostly Cloudy
9:35 PM 62.8 °F 56.5 °F 80% 29.77 in 10.0 mi West 8.1 mph - N/A   Scattered Clouds
9:55 PM 62.6 °F 56.5 °F 80% 29.78 in 10.0 mi West 8.1 mph - N/A   Mostly Cloudy
10:15 PM 61.9 °F 56.3 °F 82% 29.79 in 10.0 mi WSW 6.9 mph - N/A   Overcast
10:35 PM 61.7 °F 55.8 °F 81% 29.78 in 10.0 mi West 8.1 mph - N/A   Overcast
10:55 PM 61.7 °F 55.8 °F 81% 29.79 in 10.0 mi West 9.2 mph - N/A   Overcast
11:15 PM 61.3 °F 55.0 °F 80% 29.79 in 10.0 mi West 10.4 mph - N/A   Overcast
11:35 PM 61.0 °F 54.7 °F 80% 29.79 in 10.0 mi West 10.4 mph - N/A   Overcast
11:55 PM 60.8 °F 55.0 °F 81% 29.79 in 10.0 mi West 9.2 mph - N/A   Overcast